Location: W�rzburg
(49.7529°N, 9.8822°E)
Time: 08:50:16
(UTC+02:00)

ISS - Visible Passes

Search period start: 28 May 2017 00:00
Search period end: 07 June 2017 00:00
Orbit: 402 x 408 km, 51.6° (Epoch: 28 May)

Date Brightness Start Highest point End Pass type
(mag) Time Alt. Az. Time Alt. Az. Time Alt. Az.
28 May -3.3 00:06:24 10° W 00:09:40 60° N 00:12:56 10° E visible
28 May -4.0 01:43:00 10° WNW 01:46:18 85° SSW 01:47:25 39° ESE visible
28 May -1.3 03:19:52 10° W 03:19:57 10° W 03:19:57 10° W visible
28 May -3.4 23:14:17 10° W 23:17:34 64° N 23:20:51 10° ENE visible
29 May -3.7 00:50:56 10° WNW 00:54:15 75° NNE 00:56:01 25° E visible
29 May -1.8 02:27:35 10° W 02:28:37 17° W 02:28:37 17° W visible
29 May -3.6 22:22:10 10° W 22:25:28 75° NNW 22:28:46 10° ENE visible
29 May -3.4 23:58:52 10° WNW 00:02:09 64° N 00:05:09 12° E visible
30 May -3.0 01:35:26 10° WNW 01:37:45 38° WSW 01:37:45 38° WSW visible
30 May -3.2 23:06:45 10° W 23:10:01 60° N 23:13:18 10° E visible
31 May -4.0 00:43:19 10° WNW 00:46:38 76° SSW 00:47:05 61° SE visible
31 May -3.3 22:14:36 10° W 22:17:53 61° N 22:21:09 10° ENE visible
31 May -3.8 23:51:15 10° WNW 23:54:33 82° NNE 23:56:29 23° ESE visible
01 Jun -1.8 01:27:56 10° W 01:29:07 18° W 01:29:07 18° W visible
01 Jun -3.5 22:59:08 10° WNW 23:02:25 67° N 23:05:43 10° E visible
02 Jun -3.3 00:35:42 10° WNW 00:38:36 43° SW 00:38:36 43° SW visible
02 Jun -3.3 22:06:59 10° WNW 22:10:16 60° N 22:13:33 10° E visible
02 Jun -3.9 23:43:33 10° WNW 23:46:50 66° SSW 23:48:06 33° SE visible
03 Jun -3.8 22:51:25 10° WNW 22:54:44 89° N 22:57:39 13° ESE visible
04 Jun -2.2 00:28:12 10° W 00:30:17 23° WSW 00:30:17 23° WSW visible
04 Jun -3.1 23:35:52 10° W 23:38:58 37° SSW 23:39:51 31° S visible
05 Jun -3.6 22:43:39 10° WNW 22:46:55 57° SSW 22:49:26 15° SE visible
06 Jun -1.4 00:21:16 10° WSW 00:22:05 12° WSW 00:22:05 12° WSW visible
06 Jun -2.2 23:28:23 10° W 23:30:57 21° SW 23:31:42 19° SSW visible
